Simultaneous Nadir Overpasses (SNOs) Predictions

Prediction of SNOs between GOES-16 and METOP-C Satellite Orbit:

Table of predicted SNOs for the next 14.0 days since TLE Epoch: 5/17/2019
Index Date Time (GOES-16) GOES-16 Lat,Lon METOP-C Lat,Lon Distance(km) Time Diff (sec)
1 05/18/2019 02:16:36 0.01, -75.17 0.73, -71.92 370.10 80
2 05/19/2019 14:35:27 -0.00, -75.18 0.31, -76.48 148.19 80
3 05/20/2019 14:17:29 0.00, -75.18 -0.83, -71.49 420.61 80
4 05/22/2019 02:36:30 -0.01, -75.16 -0.21, -76.09 105.56 80
5 05/23/2019 02:13:11 -0.01, -75.16 0.88, -71.09 463.44 80
6 05/24/2019 14:32:03 0.01, -75.18 0.11, -75.66 54.02 80
7 05/27/2019 02:33:05 -0.01, -75.18 -0.06, -75.25 9.97 80
8 05/29/2019 14:31:19 0.01, -75.22 -0.09, -74.83 44.05 80
9 05/31/2019 02:50:20 -0.01, -75.22 -0.93, -79.43 479.66 80




NCC Satellite Simultaneous Nadir Overpasses (SNOs) Prediction Service
